Chongqing Jiangbei International Airport
ZUCK : now visible

Airfield :











YOU CAN JOIN US ON...

 
LOGIN :

Register | Disclaimer

   EN    FR    IT 

 









Legend :    VFR   Marginal VFR   IFR   Intensive IFR   Very Intensive IFR
Visi :
Ceiling :
>= 8 km
>= 3000ft
5 to 8 km
1000 to 3000 ft
1500m to 5 km
500 to 1000 ft
800 to 1500m
200 to 500 ft
< 800m
< 200 ft
Symbols :   Thunderstorms  Fog  Heavy snow  Heavy precipitations  Wind > 20 kt






- Airport Elevation : 1365 ft
- IATA code : CKG


ZUCK - Chongqing Jiangbei International

CURRENT METAR :
  • 290300Z VRB01MPS 9999 FEW016 SCT030 11/06 Q1018 NOSIG

EXPIRED METARs :
  • 290200Z 05002MPS 360V090 9999 SCT014 SCT027 11/07 Q1018 NOSIG
  • 290100Z 01002MPS 340V040 9999 FEW010 BKN028 OVC046 10/08 Q1017 NOSIG

TAF TAF ZUCK
Valid from the 29 at 00:00 until the 30 at 00:00 UTC


282104Z 2900/2924 06003MPS 6000 SCT012 OVC033 TX14/2908Z TN09/2922Z



MET'MAP, your aeronautical weather chart ! - Copyright ORBIFLY December 2007 - Disclaimer

ORBIFLY MET'MAP TEAM :

Programming & Development : Alexandra Zaïnal
Concept & original design : Baudouin d'Aumeries
Assistance for programming : Marc-Olivier Méhu
Technical & hardware support : Manuel Goepfert

Contact : metmap@orbifly.com




SOURCES & CREDITS :

   NOAA       Earth
Advisory